Flag for Spain Weather past 2 weeks in Málaga, Spain

Now
59 °F

Clear.


Feels Like: 59 °F
Forecast: 56 / 78 °F
Wind: 2 mph from Northwest

Location: Malaga / Aeropuerto

Current Time: May 26, 2015 at 2:21:08 AM

Latest Report: May 26, 2015 at 2:00 AM


Visibility: 10 mi

Pressure: 30.09 "Hg

Humidity: 77%

Dew point: 52 °F

Location of MálagaLocation

Historic Weather in Málaga — Graph

°F

Málaga temperature yesterday

Maximum temperature yesterday: 73 °F (at 5:30 PM)
Minimum temperature yesterday: 57 °F (at 6:30 AM)
Average temperature yesterday: 66 °F

Past Weeks' High & Low Weather Summary

 TemperatureHumidityPressure
High93 °F (May 14, 4:00 PM)94% (May 12, 10:30 PM)30.27 "Hg (May 12, 10:30 PM)
Low55 °F (May 17, 6:00 AM)20% (May 14, 4:00 PM)29.71 "Hg (May 19, 5:00 PM)
Average69 °F65%30.07 "Hg
* Reported May 11 1:00 AM — May 26 1:00 AM, Málaga, Weather by CustomWeather, © 2015

Note: Actual official high and low records may vary slightly from our data, if they occured in-between our weather recording intervals... More about our weather records

Advertising

Málaga weather history for previous 24 hours

 ConditionsComfort  
Time TempWeatherWind HumidityBarometerVisibility
1:00 AM
Tue, May 26
61 °FPassing clouds.5 mph77%30.09 "HgN/A
12:30 AM61 °FPassing clouds.5 mph77%30.09 "HgN/A
12:00 AM63 °FPassing clouds.1 mph73%30.09 "HgN/A
11:30 PM
Mon, May 25
63 °FPassing clouds.1 mph77%30.07 "HgN/A
11:00 PM64 °FPassing clouds.2 mph78%30.07 "HgN/A
10:30 PM64 °FPassing clouds.3 mph73%30.07 "HgN/A
10:00 PM66 °FPassing clouds.5 mph64%30.07 "HgN/A
9:30 PM66 °FPassing clouds.5 mph64%30.07 "HgN/A
9:00 PM68 °FPassing clouds.6 mph56%30.04 "HgN/A
8:30 PM70 °FPassing clouds.7 mph50%30.04 "HgN/A
8:00 PM70 °FPassing clouds.8 mph46%30.04 "HgN/A
7:30 PM72 °FPassing clouds.9 mph44%30.04 "HgN/A
7:00 PM72 °FScattered clouds.7 mph44%30.04 "HgN/A
6:30 PM73 °FScattered clouds.7 mph41%30.04 "HgN/A
6:00 PM72 °FBroken clouds.8 mph47%30.04 "HgN/A
5:30 PM73 °FBroken clouds.8 mph47%30.04 "HgN/A
5:00 PM72 °FBroken clouds.7 mph53%30.04 "HgN/A
4:30 PM72 °FBroken clouds.9 mph57%30.04 "HgN/A
4:00 PM72 °FBroken clouds.13 mph53%30.04 "HgN/A
3:30 PM72 °FBroken clouds.12 mph57%30.04 "HgN/A
3:00 PM72 °FBroken clouds.10 mph65%30.04 "HgN/A
2:30 PM72 °FBroken clouds.7 mph65%30.04 "HgN/A
2:00 PM70 °FBroken clouds.8 mph69%30.04 "HgN/A
1:30 PM68 °FBroken clouds.9 mph69%30.04 "HgN/A
1:00 PM68 °FPartly sunny.10 mph69%30.04 "HgN/A
12:00 PM70 °FScattered clouds.9 mph53%30.01 "HgN/A
11:30 AM72 °FScattered clouds.8 mph50%30.01 "HgN/A
11:00 AM70 °FScattered clouds.5 mph53%30.01 "HgN/A
10:30 AM72 °FScattered clouds.6 mph53%30.01 "HgN/A
10:00 AM70 °FScattered clouds.8 mph57%30.01 "HgN/A
9:30 AM68 °FPassing clouds.6 mph64%30.01 "HgN/A
9:00 AM64 °FScattered clouds.7 mph78%30.01 "HgN/A
8:30 AM61 °FPassing clouds.7 mph88%29.98 "HgN/A
8:00 AM59 °FPassing clouds.7 mph88%29.98 "HgN/A
7:30 AM59 °FPassing clouds.8 mph88%29.98 "HgN/A
7:00 AM57 °FPassing clouds.7 mph94%29.98 "HgN/A
6:30 AM57 °FPartly cloudy.8 mph94%29.98 "HgN/A
5:30 AM59 °FPartly cloudy.6 mph94%29.98 "HgN/A
5:00 AM59 °FPartly cloudy.8 mph94%29.98 "HgN/A
4:30 AM59 °FPartly cloudy.8 mph94%30.01 "HgN/A
4:00 AM59 °FPartly cloudy.6 mph94%30.01 "HgN/A
3:30 AM59 °FPartly cloudy.7 mph88%30.01 "HgN/A
3:00 AM59 °FLight rain. Partly cloudy.5 mph88%30.01 "HgN/A
2:30 AM61 °FPassing clouds.2 mph77%30.01 "HgN/A
2:00 AM63 °FPassing clouds.5 mph73%30.01 "HgN/A
Weather by CustomWeather, © 2015

See weather overviewHow to use our weather pages